Hourly Data Report for July 20, 2017

QUALICUM BEACH AIRPORT
BRITISH COLUMBIA

49°20'14.000" N
124°23'38.000" W
58.20 m
1026562
71766
VOQ

Download Data

Hourly Data (July 2017)
Hourly Data Report for July 20, 2017
TIME
LST
Temp Definition
°C
Dew Point Definition
°C
Rel Hum Definition
%
Precip. Amount Definition
mm

Wind Dir Definition
10's deg

Wind Spd Definition
km/h
Visibility Definition
km
Stn Press Definition
kPa
Hmdx Definition


Wind Chill Definition


Weather Definition


00:00 17.6 12.1 70 0.0 33 2   100.82     LegendNANA
01:00 17.9 11.8 68 0.0 28 6   100.82     LegendNANA
02:00 15.2 13.8 92 0.1 13 2   100.83     LegendNANA
03:00 14.8 13.7 93 0.2 15 3   100.86     LegendNANA
04:00 15.0 13.5 91 0.0 18 4   100.89     LegendNANA
05:00 14.8 13.2 91 0.0 19 3   100.92     LegendNANA
06:00 16.6 13.7 83 0.0 20 1   100.95     LegendNANA
07:00 18.1 13.0 72 0.0 4 3   100.98     LegendNANA
08:00 17.3 13.8 80 0.3 29 5   101.00     LegendNANA
09:00 18.9 13.8 72 0.0 31 3   101.02     LegendNANA
10:00 19.8 13.3 66 0.0 3 7   101.05     LegendNANA
11:00 20.0 14.3 69 0.0 9 12   101.12     LegendNANA
12:00 19.6 14.2 71 0.0 10 11   101.15     LegendNANA
13:00 19.4 12.9 66 0.0 9 12   101.19     LegendNANA
14:00 20.1 12.0 60 0.0 10 9   101.18     LegendNANA
15:00 19.9 11.7 59 0.0 10 8   101.19     LegendNANA
16:00 20.8 11.4 55 0.0 9 9   101.17     LegendNANA
17:00 20.4 11.4 57 0.0 6 4   101.16     LegendNANA
18:00 20.5 11.6 57 0.0 9 6   101.17     LegendNANA
19:00 20.3 11.2 56 0.0 11 6   101.18     LegendNANA
20:00 19.5 11.8 61 0.0 18 3   101.19     LegendNANA
21:00 18.0 10.5 61 0.0 22 3   101.24     LegendNANA
22:00 16.3 9.6 64 0.0 25 4   101.23     LegendNANA
23:00 15.5 9.7 68 0.0 25 4   101.24     LegendNANA

Notes on Data Quality.

Legend

  • E = Estimated
  • M = Missing
  • NA = Not Available*
  • [empty] = Indicates an unobserved value
Date modified: